Theta_e
326 326 322 320 319 318 318 319 318 316 316 314 315 312 310 307 304 302 297 297 295 295 294 292 289 289 290 290 290 290 289 290 291 291 292 292 293 297 310 317 320 323 326 327 329 327 327 327 326 327 326 324 324 325 325 324 324 322 322 322 323 323 321 319 318 318 318 319 319 319 320 320 321 322 323 321 322 323 325 325 326 326 327 328 330
324 321 320 319 318 316 317 316 316 315 316 315 312 313 311 305 302 302 300 297 296 295 295 294 292 291 290 291 290 290 289 290 290 292 291 293 293 297 305 312 317 321 324 326 327 329 328 327 326 326 327 326 325 325 326 324 323 322 321 322 323 322 321 319 318 317 317 318 318 318 319 319 320 320 320 320 321 321 322 323 323 324 324 325 326
326 323 321 320 319 317 317 315 315 315 315 316 311 313 310 309 307 304 302 299 298 294 294 293 291 291 291 291 291 290 290 289 291 291 292 293 293 293 297 306 313 318 321 323 325 326 328 328 328 327 327 327 326 325 324 325 324 322 322 321 324 323 321 319 317 317 317 317 318 317 317 318 318 319 319 319 319 320 320 320 321 322 322 322 323
323 323 321 319 319 316 315 316 317 315 313 313 312 309 309 305 303 302 300 298 296 293 292 293 291 290 288 290 289 290 290 290 290 291 292 294 294 294 295 299 304 312 317 321 324 325 326 327 328 328 328 328 328 327 325 324 326 324 321 321 322 324 323 318 317 317 317 317 317 317 317 317 317 318 318 318 318 319 319 319 319 320 320 321 321
322 322 317 319 317 316 315 315 317 316 313 312 310 308 307 305 302 299 298 297 295 294 293 291 292 290 288 290 289 289 289 289 291 291 293 294 293 293 295 296 297 304 310 315 321 324 325 325 326 327 328 327 327 327 327 326 325 324 322 322 323 323 322 320 319 318 317 317 317 317 317 317 316 317 318 318 318 318 318 318 318 318 319 319 320
320 319 318 317 316 315 314 313 315 313 312 311 311 308 308 305 301 301 301 299 298 297 294 294 292 289 289 289 288 288 288 289 289 290 290 293 293 293 294 294 295 298 300 307 313 318 323 325 326 326 327 327 327 328 328 328 327 325 325 325 324 322 323 322 322 321 318 318 317 317 317 316 316 316 317 317 317 317 317 317 318 318 318 318 318
317 317 316 316 316 315 315 317 312 309 310 309 311 307 308 307 303 304 298 298 297 296 294 294 293 294 291 290 290 288 287 289 288 289 289 291 292 292 294 294 294 296 298 297 302 306 313 320 324 325 325 325 326 326 327 328 328 327 326 325 325 323 323 323 324 319 318 318 318 317 317 316 316 316 316 317 318 317 317 316 317 317 317 317 317
317 316 316 315 314 313 312 310 309 310 310 308 309 309 307 306 304 307 304 301 296 298 292 293 291 292 290 289 288 289 288 287 288 288 289 288 291 292 293 294 294 294 299 297 298 299 307 313 318 322 322 322 324 324 326 326 327 326 326 323 324 323 323 322 319 319 319 318 318 317 316 315 315 315 316 316 316 316 316 316 315 316 316 316 316
315 316 316 315 314 313 311 309 308 310 309 308 309 309 308 307 303 303 307 306 299 297 294 291 291 290 288 288 288 288 288 288 288 288 289 288 288 289 290 293 293 299 295 295 296 296 300 307 313 316 315 317 319 321 322 324 325 325 324 324 325 323 322 319 320 319 319 318 318 317 316 316 315 315 315 316 316 316 315 316 315 315 315 315 315
312 312 313 312 312 311 310 310 309 309 309 308 308 305 306 306 305 300 300 302 300 299 300 295 291 291 289 288 288 287 287 287 288 291 289 289 288 288 291 291 292 294 294 295 294 295 295 300 306 309 308 311 316 319 321 322 323 327 326 324 324 323 322 321 320 319 318 318 317 316 316 316 315 315 315 315 315 315 315 314 314 314 314 314 315
309 310 309 310 309 309 308 308 308 308 308 307 305 304 304 303 304 302 296 295 297 297 297 295 293 291 289 289 287 287 287 287 288 288 287 288 288 291 289 291 291 293 294 293 292 292 294 295 295 296 297 305 312 316 319 321 322 325 326 325 324 323 322 321 320 319 318 317 317 316 315 315 314 314 314 314 314 314 314 314 314 314 314 314 314
303 305 307 306 306 306 306 306 306 307 306 305 305 304 303 302 302 301 300 298 294 292 292 292 291 291 291 290 287 287 287 288 287 287 288 288 289 287 289 290 290 292 292 293 293 292 293 293 293 294 295 298 306 309 313 316 317 320 323 325 326 324 322 321 320 319 318 318 317 316 316 315 314 314 314 313 314 314 314 313 313 313 313 313 314
298 299 300 302 303 303 304 304 306 305 304 303 303 302 302 302 301 299 299 297 295 292 292 293 292 293 291 289 288 287 289 289 288 288 288 288 287 288 288 289 289 289 291 291 291 292 291 292 293 293 294 291 295 301 306 309 310 316 320 322 324 325 324 322 321 319 319 318 317 316 315 315 314 314 314 313 313 313 313 313 313 313 313 314 314
294 296 296 298 299 301 301 301 302 303 303 303 302 300 300 298 297 296 295 296 296 292 293 294 292 290 290 289 288 289 286 287 287 288 288 287 287 288 288 288 289 289 287 287 290 291 291 291 290 292 292 292 293 293 295 297 300 308 315 319 322 324 324 324 322 321 319 318 317 316 316 315 315 314 314 314 313 313 313 313 313 313 313 314 314
292 293 293 294 295 296 296 298 298 299 300 300 300 300 300 299 299 299 298 295 293 293 293 294 293 289 289 289 288 286 290 286 285 286 288 288 287 287 288 287 288 288 286 286 288 289 289 289 289 290 291 291 291 291 292 295 296 300 306 310 313 318 322 324 323 322 320 318 317 317 317 316 315 315 314 314 313 313 313 313 313 313 313 313 314
289 290 290 290 291 292 293 294 295 296 297 297 296 296 297 297 298 297 297 296 295 294 293 293 292 294 292 289 286 285 289 289 282 285 283 285 286 287 286 288 288 287 286 287 288 287 288 287 288 289 289 289 289 290 290 290 294 296 297 299 303 309 315 319 322 324 322 321 319 318 317 317 316 315 315 314 314 314 313 313 313 312 312 313 313
287 287 288 288 288 289 290 290 291 292 293 294 294 294 295 295 295 294 293 293 293 294 293 293 292 294 294 289 289 288 287 286 286 292 284 287 285 285 287 287 287 287 286 287 287 287 287 286 287 287 287 288 288 288 288 288 289 292 293 294 297 302 307 313 317 320 322 322 321 319 318 318 317 316 315 314 315 314 313 313 313 312 313 313 313
285 285 286 287 287 287 288 288 288 289 290 290 290 291 292 293 294 294 294 293 291 290 291 293 292 293 292 291 292 290 287 288 288 287 286 285 285 284 284 285 285 286 287 287 287 288 288 287 287 287 287 287 287 287 287 287 288 288 289 290 299 302 305 308 312 315 318 320 320 321 322 322 317 317 315 315 314 314 314 313 313 312 312 312 313
284 284 284 285 285 285 286 286 287 287 288 288 288 289 289 290 291 292 292 293 292 289 290 291 292 292 293 292 291 289 288 287 286 286 285 287 283 283 287 284 284 285 286 287 288 287 288 287 287 287 287 287 287 287 287 287 290 291 294 296 300 303 305 305 307 310 313 316 317 318 318 321 320 317 316 315 315 314 314 313 313 313 312 312 313
283 284 284 284 284 284 284 284 285 285 286 286 287 288 288 289 290 290 290 291 291 290 290 291 289 290 291 290 290 290 289 288 288 286 285 283 286 286 285 285 284 285 286 287 287 287 287 287 287 287 287 287 287 287 287 287 287 287 289 296 300 303 304 305 305 306 308 309 312 315 317 319 323 321 318 316 316 315 314 313 313 313 312 312 313
283 283 283 283 284 283 283 283 283 284 284 284 285 286 287 287 288 288 288 289 289 289 289 289 290 290 289 289 290 289 289 288 287 287 285 284 285 287 287 285 284 284 285 286 287 287 288 288 288 288 288 288 287 287 287 287 287 287 290 294 299 303 305 306 305 305 306 307 308 309 312 315 318 321 321 320 317 317 316 314 313 313 313 312 313
282 282 282 283 283 283 283 282 282 283 284 283 284 284 285 286 287 287 288 287 288 288 288 288 289 289 289 289 288 287 287 287 287 286 285 285 284 285 286 286 285 287 286 286 287 287 287 287 287 287 287 287 287 287 287 287 287 288 289 294 297 299 302 303 304 305 306 307 307 308 310 311 313 315 319 321 320 318 316 315 313 313 313 312 312
281 282 282 282 282 282 282 282 282 283 282 282 282 283 284 284 285 286 286 287 287 287 287 287 287 287 287 287 287 288 287 286 286 286 286 285 285 285 286 287 287 286 287 287 287 287 287 286 286 287 287 288 288 287 287 287 289 290 292 294 296 298 300 302 303 304 304 306 307 308 309 310 310 312 314 319 321 320 318 316 315 313 312 312 312
281 281 281 281 282 281 281 281 281 281 281 281 282 282 282 283 283 284 284 285 286 286 286 286 286 286 286 286 286 287 287 287 287 288 287 286 286 285 285 286 287 287 288 286 286 286 286 286 286 286 287 287 288 288 287 287 288 291 290 292 295 298 301 304 304 304 304 304 305 306 308 310 310 311 312 314 318 320 319 318 315 314 313 312 312
281 281 281 281 282 281 281 281 281 281 281 281 281 281 282 281 282 282 282 283 284 284 284 285 285 285 286 287 287 286 286 287 287 286 286 286 285 284 285 285 284 285 286 285 286 283 285 286 286 287 287 287 287 288 287 287 287 289 291 291 294 296 298 300 301 303 304 304 304 305 306 309 309 310 311 312 314 319 320 316 315 314 314 313 312
281 281 282 282 282 282 282 281 282 281 281 281 281 280 281 280 281 280 280 282 282 282 282 283 283 284 285 284 285 286 286 287 286 286 285 284 283 282 282 283 283 284 286 286 284 286 285 284 285 286 286 286 287 287 287 287 287 290 291 289 290 294 296 298 300 301 302 303 304 305 306 307 308 309 310 312 313 316 318 317 316 315 314 313 312
281 281 281 281 281 281 281 281 281 281 281 281 281 280 280 280 280 279 279 280 280 280 280 281 282 282 282 283 284 284 285 286 285 286 286 285 284 283 282 281 282 283 284 285 287 286 287 286 285 285 285 286 286 286 286 286 288 290 290 288 287 291 294 297 300 302 302 303 303 304 305 306 307 308 308 311 313 315 317 317 316 315 314 313 313
280 280 280 280 280 280 280 280 280 280 280 280 279 279 279 279 279 279 278 280 279 278 279 279 279 280 281 282 282 282 284 284 285 285 285 285 284 283 282 280 279 279 283 283 284 285 285 287 284 285 285 286 286 286 287 287 287 290 289 287 286 287 292 295 298 300 301 302 303 303 303 304 307 307 308 310 311 313 314 314 314 314 312 311 311
279 279 279 278 278 279 279 279 279 279 279 279 279 278 278 278 278 278 278 279 279 278 278 278 278 278 279 280 280 281 282 283 283 284 284 284 284 284 283 282 282 280 279 280 282 283 284 283 285 284 284 285 286 287 286 285 287 288 286 286 286 286 289 293 296 298 300 302 302 303 303 304 305 307 307 308 310 311 312 312 311 311 311 311 310
278 279 277 277 277 278 277 277 278 278 277 278 277 278 277 277 277 277 277 278 278 278 278 278 278 278 278 278 278 279 280 281 282 283 283 284 283 283 283 283 282 280 280 279 280 283 284 284 283 285 284 284 285 286 285 285 288 288 286 285 285 286 290 293 294 296 298 300 301 301 303 303 304 305 306 307 308 309 310 310 310 310 310 310 310
277 277 277 277 277 277 277 277 277 276 276 276 276 276 276 276 276 276 276 276 276 276 277 278 278 278 278 277 278 278 278 279 280 281 281 282 282 283 283 283 282 282 281 280 278 282 283 284 284 283 282 283 286 286 286 286 287 287 286 285 285 288 290 290 292 294 296 297 298 300 301 302 303 305 306 306 307 308 309 309 309 309 308 308 309
276 276 276 276 276 276 276 276 276 276 276 276 276 275 275 275 275 275 276 275 275 275 276 276 278 278 277 277 277 277 278 278 278 279 279 281 282 282 282 282 282 282 282 281 279 280 284 284 285 285 286 286 286 286 286 286 287 288 286 286 285 288 287 286 290 292 294 295 297 298 300 301 302 303 305 306 306 307 307 308 308 307 307 307 307
276 276 276 276 276 276 275 276 275 275 275 275 275 275 275 275 275 275 275 275 275 275 275 275 275 276 276 276 277 277 278 277 278 278 278 279 280 280 281 281 281 281 280 280 279 279 282 283 284 284 284 283 284 284 285 285 285 285 287 286 285 285 285 285 285 288 291 293 295 296 298 299 301 302 303 305 305 305 305 306 306 306 306 306 306
275 275 275 275 275 275 275 275 275 274 274 274 274 275 274 274 274 276 275 275 274 274 275 274 275 275 275 275 275 276 277 277 277 277 278 278 278 278 279 279 279 280 281 280 279 279 278 281 281 283 283 284 283 284 284 285 285 285 285 285 285 284 284 284 284 285 289 292 293 295 297 298 299 301 302 303 304 305 305 305 304 304 305 305 304
274 274 274 274 274 274 273 274 273 273 274 273 274 274 274 274 274 274 275 275 274 274 274 274 274 275 274 274 274 275 276 276 276 276 277 277 278 277 278 278 278 279 280 280 279 278 278 279 281 281 281 282 283 283 283 284 284 284 284 285 285 285 285 284 284 285 288 291 293 294 296 297 298 299 300 301 303 304 304 303 302 303 303 303 303
273 273 273 273 273 272 272 272 272 272 273 273 273 273 274 274 274 274 274 274 274 274 274 274 274 275 274 274 274 275 275 275 275 275 276 276 276 277 277 277 278 278 279 279 279 279 278 278 279 280 281 281 282 282 282 282 282 283 284 284 284 284 284 284 284 284 287 290 292 293 294 296 296 298 299 300 301 303 303 303 302 301 302 301 302
272 272 272 271 271 271 271 271 272 272 272 272 272 272 273 273 273 273 274 274 274 274 274 274 276 275 275 274 275 275 275 275 275 275 275 275 276 276 276 277 277 278 278 278 278 279 278 277 278 279 280 280 281 282 282 281 282 282 282 282 283 283 283 284 284 285 287 290 291 292 293 294 295 296 298 299 300 301 302 302 302 301 300 300 300
271 271 270 270 271 270 271 271 271 271 271 271 271 271 271 272 272 272 272 273 273 274 274 274 275 275 275 275 275 275 275 275 275 275 275 275 276 276 276 276 277 277 277 277 278 277 277 277 277 277 279 278 279 280 281 281 280 280 281 281 281 282 282 283 283 284 284 285 285 287 290 291 293 294 296 297 299 300 301 302 301 301 299 298 298
269 269 269 269 270 270 270 270 270 269 269 270 270 270 270 271 271 271 272 272 272 273 273 273 274 274 274 274 274 275 274 275 274 274 275 275 275 275 276 276 277 277 277 277 277 277 277 277 277 277 277 278 279 278 280 280 280 280 279 280 280 281 281 282 282 284 284 284 286 289 288 288 289 290 292 295 297 298 300 301 301 301 299 298 298
268 268 268 268 268 268 269 268 268 268 268 268 269 269 269 270 271 271 271 271 271 271 272 272 272 272 273 273 273 274 274 274 275 275 275 275 276 276 278 278 278 278 278 278 278 277 277 276 276 276 277 277 278 278 279 278 278 279 279 278 278 280 281 281 281 282 283 283 283 283 286 288 289 290 291 292 294 296 297 298 299 298 297 298 298
267 267 267 267 266 266 266 266 266 267 267 267 268 268 269 270 271 271 271 271 271 271 271 271 272 272 272 273 273 273 274 276 277 278 278 278 276 276 277 277 277 277 276 276 276 276 276 276 276 277 276 276 277 277 276 276 276 277 280 278 278 280 280 280 281 282 282 282 282 282 282 283 283 284 285 286 288 291 293 295 296 295 297 298 298
265 266 265 265 265 265 265 265 265 265 266 266 268 271 273 272 272 271 271 271 271 271 271 270 271 271 272 272 273 275 275 275 276 277 277 278 278 277 276 276 276 276 276 276 276 276 276 275 275 276 275 275 276 277 276 277 278 278 278 278 278 279 280 279 280 281 282 282 281 281 282 283 282 282 283 283 285 287 288 290 292 295 295 298 298
263 264 264 264 264 264 264 264 264 264 265 265 269 272 274 274 273 272 271 271 271 271 270 270 270 270 271 271 271 272 273 273 273 275 276 277 277 278 278 279 278 276 275 275 275 276 276 276 277 278 277 277 277 278 278 278 279 278 278 279 278 279 278 277 277 279 280 282 280 280 281 283 282 281 282 282 283 284 286 287 292 295 296 297 298
263 262 263 263 263 263 263 263 263 263 264 267 270 272 273 274 274 272 272 271 271 270 270 270 270 270 269 269 269 270 269 270 270 270 271 273 274 275 276 277 277 278 279 276 275 274 274 274 274 275 275 276 277 279 279 279 278 279 278 278 278 278 278 277 277 278 279 282 279 279 280 282 281 281 281 282 283 283 285 288 291 293 295 297 297
261 261 262 262 262 263 263 262 262 263 263 266 270 272 273 274 274 274 271 271 270 270 269 269 268 268 268 268 268 268 269 271 270 269 269 269 272 274 274 275 275 276 276 277 278 275 274 273 273 273 274 274 274 275 278 280 281 279 279 279 278 278 278 278 279 279 280 280 279 278 279 281 280 280 280 282 282 283 284 288 290 292 293 295 296
261 261 260 261 261 261 262 261 261 262 262 265 270 272 272 273 274 274 271 270 269 268 268 268 267 267 267 267 267 267 268 269 269 269 269 269 270 270 271 271 271 273 275 276 276 277 276 274 273 272 273 275 275 277 279 281 280 279 279 279 280 279 279 278 280 281 281 281 279 279 279 280 279 279 280 281 282 282 282 286 289 291 292 294 295
260 260 260 259 260 260 260 260 261 261 261 267 270 271 272 273 274 274 270 269 268 267 268 268 268 268 268 268 268 267 268 268 269 270 269 270 270 269 269 270 270 271 271 272 272 273 273 274 273 273 273 274 274 274 275 276 277 278 280 279 280 280 281 282 281 281 281 280 280 279 277 281 280 278 280 281 281 281 282 286 289 290 291 293 294
258 259 259 259 259 259 260 259 259 260 261 267 269 270 272 273 274 270 269 268 267 267 267 267 268 268 268 268 268 268 268 268 270 273 273 271 270 270 269 270 270 271 271 274 276 277 276 275 275 275 275 276 278 277 278 278 278 278 278 279 280 279 278 278 277 280 280 280 280 279 278 279 279 278 279 281 280 280 281 281 286 289 291 292 293
259 258 258 258 259 259 259 259 259 259 259 264 268 270 271 273 271 269 268 268 267 267 267 268 268 268 268 268 268 268 268 268 271 274 275 275 271 270 270 270 271 271 271 273 276 277 278 278 279 279 280 280 281 281 282 282 280 280 278 277 276 279 278 276 277 278 278 281 279 279 279 279 279 278 279 279 278 279 280 281 282 287 290 291 292
258 257 258 258 258 258 258 258 258 258 259 263 268 269 270 271 271 269 268 267 267 267 267 268 268 268 269 271 271 269 269 269 273 275 276 275 272 272 271 271 270 270 271 273 273 273 277 278 278 278 278 279 279 280 280 281 280 279 275 273 274 276 276 277 277 278 279 281 279 279 278 278 281 278 276 276 276 277 279 280 281 283 287 289 291
257 257 257 257 257 257 258 258 261 261 259 261 266 268 270 271 270 269 269 268 267 267 267 267 268 268 269 270 272 272 272 273 276 277 277 275 273 272 272 271 270 270 271 272 271 272 272 272 272 273 274 275 275 274 275 278 279 278 276 275 275 274 273 275 277 278 277 279 281 280 278 277 280 275 278 272 275 275 278 279 280 280 282 284 286
Wind_Speed
5 5 6 6 2 3 2 6 3 3 4 3 4 4 4 4 4 4 3 3 3 3 2 1 1 1 1 3 3 3 3 3 3 3 3 3 3 4 6 6 6 7 7 7 8 7 7 7 8 7 8 5 4 6 7 7 4 3 5 6 2 4 5 2 2 4 4 5 4 5 5 5 5 10 9 4 5 4 3 5 6 8 9 10 11
5 2 2 4 3 3 2 2 4 4 5 5 5 5 5 4 3 3 4 3 3 3 2 1 0 0 0 1 3 3 3 3 3 3 4 4 4 4 7 7 7 7 6 7 7 7 8 8 9 8 10 8 7 8 9 6 4 4 4 8 1 4 5 3 2 2 4 5 5 5 6 6 6 6 4 5 6 6 7 5 8 5 6 9 10
7 5 5 5 6 6 5 2 2 3 4 6 4 4 5 5 5 5 5 4 3 1 1 1 1 1 0 0 3 3 3 3 3 3 3 4 4 4 5 9 8 7 7 7 8 8 8 9 9 9 10 9 8 8 8 8 9 6 5 6 4 5 6 3 1 3 3 4 6 4 4 6 6 6 5 5 5 5 5 7 6 6 6 6 8
1 5 6 2 1 1 1 5 6 2 2 2 3 3 3 2 3 3 2 3 2 1 0 1 1 1 1 2 1 3 4 4 4 4 4 4 4 5 5 5 8 9 8 7 8 9 9 9 9 9 10 10 10 9 8 9 12 10 5 6 8 9 10 5 3 4 4 3 5 6 5 4 6 6 6 5 5 6 5 5 7 7 6 6 6
5 4 2 3 4 3 3 4 6 6 4 3 3 4 4 4 3 3 3 2 2 1 0 0 1 2 2 2 1 3 2 3 5 4 4 4 5 5 5 4 5 8 9 8 7 7 8 8 9 10 10 10 10 9 9 10 11 11 7 9 11 10 3 7 6 8 5 5 5 5 5 6 4 6 6 6 6 6 6 6 6 6 7 7 6
4 5 5 4 5 6 5 3 1 1 2 3 4 3 3 4 4 4 3 3 3 2 1 3 2 1 2 2 1 1 1 3 3 3 4 5 5 5 5 5 5 5 6 9 9 7 6 5 5 5 6 7 8 9 9 11 12 12 12 14 13 9 8 7 12 10 5 6 6 5 5 5 6 6 7 7 7 7 6 6 7 7 8 6 5
5 5 3 1 1 4 5 4 2 2 3 2 3 2 3 4 4 4 2 2 1 1 2 3 3 4 3 1 3 3 1 2 2 3 4 4 4 4 5 5 5 5 5 6 7 8 7 7 5 5 5 6 7 8 10 12 12 13 13 16 11 10 9 10 14 1 5 6 7 6 5 4 5 6 6 7 5 5 7 6 6 6 6 6 7
6 5 5 5 5 6 6 6 2 1 2 4 3 4 3 3 3 4 4 4 2 3 1 3 2 4 3 3 3 2 4 3 4 4 4 2 4 4 4 4 5 4 5 6 6 6 10 8 7 6 5 6 7 8 10 12 13 13 15 6 10 9 9 9 3 5 6 8 8 7 5 5 6 6 7 8 3 7 9 8 8 9 9 9 9
8 6 6 6 5 5 5 4 3 3 3 2 1 1 3 4 3 3 4 4 4 3 2 2 3 3 3 4 3 2 4 4 4 5 3 4 3 3 3 4 4 5 5 5 5 6 8 10 9 8 7 7 8 8 10 11 12 14 13 8 10 11 11 4 8 5 9 9 7 6 6 7 6 7 8 9 11 9 8 10 10 10 10 10 10
11 10 8 7 7 6 5 5 5 5 4 4 5 5 6 5 3 3 4 1 1 2 5 2 1 3 3 3 4 3 5 4 3 3 3 5 4 4 4 4 4 5 5 5 4 5 5 8 10 10 8 7 8 9 10 10 10 11 11 12 12 12 11 11 8 9 8 8 6 6 7 8 9 8 8 9 9 10 10 10 10 10 10 10 10
11 10 10 9 8 8 7 6 5 4 5 6 5 5 4 4 4 3 3 4 4 4 4 3 3 2 3 5 4 4 4 3 3 5 5 4 4 4 2 5 4 5 5 4 4 4 5 5 6 6 7 9 9 10 10 10 10 10 11 12 14 13 12 11 10 10 10 10 10 10 10 11 11 10 10 10 10 10 11 11 11 10 11 10 10
12 11 10 9 7 6 7 6 6 6 7 6 5 3 3 3 3 3 3 3 3 3 4 3 3 4 5 5 3 4 5 4 4 5 4 4 5 3 5 5 4 6 4 5 5 5 5 4 4 6 5 7 10 10 10 10 10 10 11 11 13 14 13 13 12 11 12 12 12 12 12 11 11 12 12 11 11 11 11 11 11 11 11 11 11
13 12 12 11 10 11 11 10 8 6 5 6 5 5 4 3 2 3 2 2 2 2 1 1 4 6 3 4 5 3 5 3 5 6 6 6 4 5 6 4 5 5 6 4 4 5 4 4 5 5 6 4 6 8 10 10 10 11 11 12 12 14 15 15 15 13 13 13 13 14 13 12 11 12 12 12 12 11 12 11 11 11 12 12 12
11 12 12 12 11 11 9 8 7 6 6 6 6 5 5 5 3 4 3 2 1 2 1 2 3 2 5 6 5 6 3 2 5 7 4 4 4 5 6 5 6 5 3 3 5 5 5 5 4 5 5 5 6 5 6 7 7 10 12 13 13 13 16 17 16 16 15 15 15 14 15 12 12 12 12 12 12 12 12 12 12 11 12 12 13
10 10 10 10 10 9 9 8 10 9 9 9 8 9 6 5 6 4 3 2 0 1 1 3 1 1 2 3 4 7 4 3 2 3 6 6 4 5 4 4 7 5 3 3 6 5 4 4 5 5 6 5 6 5 6 6 7 9 11 12 13 14 14 15 18 18 18 18 16 16 17 16 13 13 12 13 13 14 13 13 12 12 12 13 13
12 11 10 11 11 10 9 10 10 10 8 8 8 8 8 8 7 4 2 3 3 2 1 2 2 2 4 2 3 2 9 2 4 6 2 5 3 5 3 6 7 4 1 5 6 4 5 4 5 6 6 6 6 6 6 6 8 10 11 11 11 13 15 17 17 18 19 18 19 19 18 19 16 15 13 14 15 14 15 15 13 12 12 13 14
11 12 10 10 10 10 10 9 10 10 9 10 10 9 9 8 8 6 6 3 5 2 1 1 2 1 1 2 3 1 2 5 8 9 2 1 2 3 4 5 5 4 3 6 6 6 6 5 7 5 6 7 6 6 6 6 6 5 8 10 11 11 13 16 17 18 19 20 20 20 20 21 16 17 14 14 15 16 16 16 15 14 13 14 14
11 11 11 10 11 10 10 10 10 10 9 8 8 10 11 10 9 7 8 6 3 2 3 1 0 1 3 2 2 3 5 5 6 9 2 2 5 4 4 5 4 5 5 6 7 8 5 7 6 7 7 6 6 6 6 6 6 7 7 8 11 13 13 14 17 19 20 20 21 21 21 19 17 17 16 15 15 17 17 17 16 15 14 15 14
11 11 11 10 10 10 10 9 9 9 8 9 9 8 7 7 7 8 8 7 7 6 6 6 2 1 0 2 2 3 2 2 5 6 13 2 1 4 6 4 4 4 5 6 7 6 7 6 7 7 7 6 6 7 6 8 8 8 10 12 14 15 15 15 15 17 20 21 21 21 21 23 18 18 17 16 15 16 17 18 18 16 15 15 15
11 11 11 11 10 11 10 10 10 9 8 8 7 7 7 7 7 6 6 7 7 6 5 6 5 4 3 3 2 2 3 3 4 6 6 11 11 3 4 7 4 4 5 7 7 7 8 7 7 7 7 7 7 7 8 8 7 8 8 14 15 16 16 16 16 16 17 19 21 22 22 22 25 20 19 17 17 17 18 18 18 18 16 15 16
10 10 10 10 10 10 10 10 10 9 8 8 8 8 9 9 9 9 8 6 6 5 5 6 6 5 6 4 4 3 2 3 4 3 4 6 12 9 9 4 4 5 7 6 6 7 7 8 7 7 7 7 7 7 8 8 8 8 9 14 16 17 18 18 17 17 17 17 18 20 22 23 25 23 21 22 20 18 17 18 18 18 17 17 17
9 9 10 9 10 9 9 10 9 8 8 8 9 10 9 9 8 7 7 7 5 5 4 4 4 5 4 4 3 4 4 2 1 1 3 6 10 11 10 11 13 5 3 4 7 7 7 7 7 6 7 8 7 7 7 8 9 8 9 15 16 17 18 18 18 18 17 16 17 18 20 22 23 24 23 20 23 20 17 18 19 19 18 18 18
7 8 9 9 8 8 8 8 7 8 8 8 8 8 8 7 7 7 8 8 7 7 6 4 3 4 4 5 5 4 3 2 5 5 4 5 7 10 10 9 11 15 6 5 6 7 6 5 6 7 8 8 8 7 7 8 9 10 14 13 14 16 18 18 19 19 19 19 19 18 18 19 20 22 22 22 21 23 20 20 21 19 19 18 17
8 8 9 9 8 8 7 7 8 8 8 7 7 7 6 6 6 6 6 6 7 7 6 7 8 6 4 4 4 3 4 4 4 4 5 6 6 10 9 10 12 8 7 6 6 8 7 8 7 7 8 7 8 7 7 8 9 14 14 16 17 19 20 21 21 20 20 20 19 19 19 19 19 19 19 21 22 22 22 22 21 19 19 19 18
9 9 9 10 8 9 9 9 8 7 6 6 6 7 7 7 7 7 6 7 6 6 6 6 5 5 6 6 4 4 4 4 3 4 5 5 5 8 7 5 11 14 6 3 7 3 6 7 7 7 7 7 7 7 7 7 8 11 14 11 17 18 19 20 21 21 20 20 20 20 19 19 19 19 20 20 22 24 28 24 21 21 20 19 20
7 8 6 7 7 7 7 8 7 7 7 6 6 6 6 6 6 7 7 6 7 6 5 5 4 4 4 5 5 5 5 4 4 4 4 4 6 6 8 6 7 12 9 7 2 6 2 4 5 6 5 6 8 7 7 8 8 13 15 10 10 15 18 19 21 21 21 21 21 20 19 18 20 19 19 20 22 23 22 23 22 22 22 21 21
6 5 6 6 6 7 7 7 8 8 8 8 7 7 6 6 6 5 5 5 7 7 6 6 7 7 5 4 6 5 5 4 4 5 4 4 5 5 5 10 10 8 10 7 10 8 11 5 5 5 7 7 7 7 8 7 8 12 13 8 8 12 16 19 21 22 22 22 21 20 19 18 18 20 20 20 21 22 24 25 24 24 23 23 22
5 5 6 6 6 7 7 7 7 7 6 7 7 7 7 7 7 6 7 4 6 6 5 5 6 7 6 5 5 6 5 5 4 5 4 5 5 5 5 5 7 14 9 11 9 10 3 7 3 5 6 6 6 6 7 7 7 13 12 7 7 8 13 18 21 22 22 22 21 20 20 19 18 19 20 19 17 18 21 24 24 23 21 18 16
5 4 5 5 4 5 5 5 5 5 5 6 6 6 6 6 6 7 8 7 6 7 6 6 6 5 5 5 5 6 6 6 4 4 5 4 5 5 5 6 6 7 9 10 13 10 4 2 6 4 3 5 6 5 5 5 7 8 5 5 6 7 10 16 19 20 21 22 22 21 20 20 20 19 19 19 18 18 18 18 18 17 16 14 16
4 4 4 5 4 5 4 5 4 4 4 4 4 4 4 5 5 5 5 5 6 5 5 6 7 6 6 6 5 6 6 6 6 6 5 5 5 5 5 6 5 8 7 9 15 7 11 4 5 6 3 4 3 5 3 6 8 9 6 6 6 8 12 17 17 18 20 22 22 22 23 21 21 20 20 20 19 19 19 19 19 18 17 18 20
6 7 7 7 7 7 6 6 6 6 5 5 5 5 4 5 5 5 5 4 5 6 6 6 6 6 7 8 6 6 5 6 6 6 6 6 6 6 6 5 6 7 8 8 12 6 3 10 5 3 3 5 6 7 6 6 8 9 8 7 7 10 15 12 15 17 20 21 21 22 23 23 22 21 21 21 22 22 21 19 19 19 19 21 23
5 5 6 6 7 8 7 7 7 7 7 5 6 6 6 5 6 7 6 5 6 6 7 5 5 6 7 9 7 7 7 6 6 6 6 6 6 6 6 6 6 6 7 8 11 17 5 9 12 9 10 10 8 10 10 7 7 11 8 8 8 10 9 8 11 17 18 20 21 21 22 23 23 22 21 21 22 24 24 22 21 22 22 22 24
5 6 6 6 6 6 6 7 7 8 8 9 8 7 7 8 7 6 7 7 8 8 7 8 5 6 7 8 8 7 7 8 7 6 6 6 6 7 6 6 7 6 6 8 12 15 10 5 10 8 6 6 9 5 10 8 7 7 8 7 6 7 7 7 8 12 16 19 20 21 22 22 23 23 22 21 21 24 24 25 25 23 23 24 24
5 5 6 5 5 5 5 6 6 7 7 7 7 7 8 10 9 7 8 8 8 9 7 9 8 6 7 9 9 7 6 9 9 8 7 7 6 8 7 7 7 8 5 7 11 11 17 6 8 8 8 5 11 5 7 11 8 6 8 8 5 6 7 7 7 8 12 17 19 20 22 23 23 24 24 22 21 23 24 25 25 24 23 24 24
4 4 5 4 5 5 5 5 6 6 6 6 6 6 7 7 9 9 8 8 9 10 11 11 10 8 9 9 9 8 7 8 8 7 7 8 7 8 9 7 8 8 7 7 9 13 15 13 6 10 7 6 8 10 5 8 9 7 9 9 8 6 5 6 7 7 10 16 18 20 21 22 23 24 25 25 23 22 23 24 26 23 22 23 23
4 4 3 4 4 5 4 5 5 5 6 6 6 6 7 8 9 10 9 9 9 9 10 11 11 11 11 12 10 8 8 10 9 8 6 7 7 7 8 8 8 9 8 7 9 11 12 14 10 7 8 8 9 8 6 7 9 8 8 9 5 7 7 6 7 8 8 15 18 19 20 21 23 24 25 25 23 22 22 23 23 23 22 21 21
4 4 4 4 4 5 6 6 7 6 7 7 8 8 7 7 8 9 9 9 9 10 10 11 10 11 11 11 12 10 9 11 11 8 7 8 8 8 9 9 9 8 8 8 9 9 11 14 14 8 7 9 7 10 8 9 9 8 7 8 8 8 8 7 7 7 10 16 18 19 19 21 22 23 24 25 25 24 24 24 24 23 22 21 21
5 5 6 6 6 6 7 6 6 7 7 8 8 9 9 9 9 9 10 10 10 11 11 11 11 10 11 11 11 10 11 12 12 11 10 11 10 10 10 10 9 9 10 10 9 10 10 13 12 13 7 9 9 7 8 7 9 10 9 8 6 6 8 9 8 7 5 6 7 9 13 16 20 23 24 24 26 26 25 25 24 24 23 21 21
6 7 6 6 6 7 7 7 8 9 8 8 8 8 8 9 9 10 10 10 11 11 11 11 11 11 11 11 11 11 12 12 13 13 13 13 11 12 11 11 10 10 10 10 10 10 11 12 13 11 11 8 7 10 6 6 8 9 10 10 9 6 7 8 10 5 5 7 10 14 13 11 12 12 17 23 25 27 26 25 24 24 22 22 22
6 6 7 7 7 6 7 7 8 7 8 7 7 7 8 8 9 10 9 10 11 11 11 11 11 11 12 12 11 11 11 11 12 12 12 12 11 12 10 9 9 11 11 10 10 9 10 11 12 13 10 10 8 6 5 3 7 9 6 7 12 12 8 6 7 9 5 7 7 7 9 12 13 16 19 21 24 26 25 23 24 23 23 22 23
5 4 6 7 6 7 6 6 7 7 6 7 6 7 9 10 9 10 11 10 11 12 12 11 10 10 10 10 10 10 12 18 23 21 20 19 14 13 12 10 10 10 12 11 11 11 11 11 13 12 12 12 9 9 8 7 8 11 8 4 8 10 9 8 8 8 8 8 7 7 8 8 8 9 9 10 13 18 20 24 20 24 23 22 23
4 4 5 5 5 6 7 7 6 6 6 5 9 17 15 12 13 11 12 12 12 13 13 14 13 12 12 12 12 19 21 21 20 21 21 22 23 18 15 14 13 13 12 11 10 9 10 12 12 12 14 13 11 9 9 8 6 6 8 7 10 12 10 9 11 8 6 7 7 9 10 7 8 10 9 11 11 10 10 12 14 15 17 23 23
4 4 5 5 5 6 6 7 7 6 6 6 16 17 18 20 14 13 12 12 12 13 12 13 13 14 13 13 12 15 16 17 15 20 21 22 21 22 23 23 20 16 13 12 12 11 10 11 11 12 11 14 14 11 10 9 8 7 9 8 9 10 11 9 13 8 4 8 8 8 10 7 7 11 10 11 10 9 10 12 12 19 20 22 23
4 3 5 5 6 6 6 6 7 7 6 11 17 18 19 19 17 13 11 11 11 11 12 12 12 12 13 13 12 11 12 13 14 14 16 21 23 24 24 23 22 23 22 17 14 13 12 11 12 13 14 16 16 12 8 7 8 7 7 8 10 10 11 11 9 12 4 8 5 7 11 6 7 9 11 10 10 8 10 13 18 20 22 24 22
3 4 5 6 6 6 7 8 8 7 7 13 18 20 20 20 20 17 11 11 11 11 11 12 12 12 12 12 12 11 10 18 14 11 12 13 18 23 23 23 22 23 22 24 24 18 14 14 14 15 15 14 16 15 11 9 6 12 10 10 8 9 10 12 12 11 9 5 5 7 12 7 8 8 12 11 8 7 10 16 22 22 23 24 24
4 4 4 5 5 6 7 8 8 8 7 13 19 20 20 21 20 18 11 10 10 11 12 12 12 12 13 12 13 12 12 13 13 14 14 13 13 13 12 12 12 15 19 22 22 24 20 14 13 16 16 12 14 14 12 9 10 10 9 10 9 11 10 12 12 13 9 7 9 7 12 9 6 8 12 11 6 7 10 13 20 22 24 25 25
5 5 5 5 5 5 7 7 8 9 8 17 19 21 20 21 21 18 10 10 10 10 11 12 12 13 13 13 13 14 13 13 12 16 16 16 14 12 12 13 14 14 15 15 14 13 13 13 15 17 18 16 15 18 17 14 12 13 10 12 13 14 13 13 13 12 12 6 8 7 15 13 5 7 11 10 5 8 9 12 21 23 25 25 26
3 3 4 3 6 7 7 7 8 10 9 17 20 20 21 20 22 11 9 10 10 10 11 12 12 12 13 13 13 14 14 14 18 25 22 18 15 15 14 14 13 13 13 14 20 20 18 16 15 16 14 15 19 18 17 14 12 12 14 15 15 15 16 16 16 12 14 6 10 10 11 13 5 8 10 8 6 8 8 8 15 23 24 25 26
4 4 4 5 5 7 8 7 9 10 9 14 19 20 20 22 17 8 9 7 10 12 12 12 13 13 12 13 14 15 16 16 22 27 26 26 17 15 15 14 12 11 10 9 17 24 24 25 27 28 29 29 29 29 30 31 22 17 13 13 14 12 14 15 14 13 15 10 8 10 11 14 8 8 10 7 6 8 9 8 9 16 24 24 26
6 5 5 6 5 6 7 8 7 10 10 13 20 20 21 21 18 11 8 7 7 9 12 11 11 11 13 24 22 17 17 16 24 27 28 23 16 13 12 13 13 12 11 11 11 13 23 28 29 30 29 27 27 28 29 28 27 20 12 15 14 12 15 13 15 14 12 11 8 9 9 14 10 7 5 5 4 4 7 7 8 10 17 21 26
5 5 5 7 7 6 6 8 12 13 11 12 18 19 21 20 16 10 8 8 7 9 10 11 10 10 11 14 23 22 21 23 30 29 30 24 15 12 12 12 13 12 11 11 12 13 12 13 14 15 16 20 18 15 16 26 27 22 14 14 13 13 15 15 16 14 15 12 10 11 12 10 11 5 7 3 8 5 7 7 8 8 9 9 11
Wind_Direction
167 185 171 196 172 312 172 161 173 163 144 139 144 157 155 157 159 158 160 160 153 152 125 86 97 84 58 323 317 312 309 307 299 301 299 298 290 294 301 302 301 300 302 307 304 257 248 247 253 263 257 251 250 244 253 270 287 343 287 286 330 103 86 88 354 320 318 310 328 333 328 315 331 16 341 311 335 340 344 8 2 22 21 22 27
160 150 156 167 165 153 164 140 160 157 155 172 191 169 167 153 150 154 163 178 185 197 147 180 38 97 97 296 303 287 290 287 289 290 298 301 292 293 300 301 297 291 292 303 295 290 254 245 244 247 256 260 241 249 265 272 271 280 318 295 205 137 144 152 280 317 319 321 320 326 332 325 313 331 308 342 333 325 316 316 337 337 11 18 18
169 178 198 173 176 177 199 166 154 188 185 193 165 179 164 173 174 173 181 181 209 158 154 200 322 336 23 319 284 322 299 292 298 296 299 298 303 306 306 307 305 301 302 289 284 285 274 255 257 247 255 262 255 246 256 258 245 242 244 272 186 172 189 192 58 302 304 313 305 301 317 314 321 316 306 305 310 309 317 321 318 327 340 359 15
176 186 192 204 262 316 312 191 198 182 165 154 163 146 146 131 133 145 147 152 157 129 102 172 276 315 1 335 345 330 313 316 307 309 304 304 311 310 313 311 312 312 307 296 282 279 275 268 266 259 255 261 264 257 244 258 271 263 255 249 258 211 197 146 205 254 266 285 303 298 281 301 306 309 297 299 308 301 306 311 315 298 317 328 348
185 173 158 161 167 163 166 209 202 199 185 158 125 123 114 119 104 104 101 111 133 205 71 64 330 324 11 324 360 318 322 330 316 323 315 310 308 314 314 316 314 315 311 307 302 299 286 280 277 269 264 262 265 264 250 251 254 261 242 243 237 240 148 169 226 208 234 263 273 289 292 289 298 290 294 293 290 296 293 306 303 302 295 307 313
169 187 181 170 173 187 193 220 230 116 118 138 152 145 139 146 149 134 147 160 202 227 229 271 286 311 300 276 329 277 336 333 318 310 311 302 307 314 312 315 315 310 310 313 317 318 312 302 304 298 293 282 278 274 272 276 276 259 246 239 240 208 180 234 239 254 184 236 253 261 276 281 287 299 293 288 283 279 289 295 316 309 299 284 298
10 355 326 320 246 187 190 221 141 127 129 130 133 142 161 174 150 158 146 191 216 249 221 246 274 288 288 339 302 314 320 260 277 284 287 283 307 300 309 310 308 310 312 313 313 315 318 320 307 294 297 289 279 277 279 278 282 281 269 266 226 215 225 216 255 288 201 232 244 247 261 274 279 282 287 282 357 331 290 281 290 290 293 303 306
32 33 34 29 16 2 357 15 19 79 141 146 147 182 174 156 179 171 177 230 206 262 186 264 292 281 295 302 296 320 309 308 292 280 255 265 277 293 301 302 304 303 305 306 308 308 312 314 307 304 312 307 295 290 287 284 281 282 279 252 195 224 241 289 304 230 233 237 239 244 244 256 263 270 275 276 243 275 267 275 289 287 283 287 291
22 32 54 35 34 28 17 33 43 26 4 3 342 24 172 185 189 214 201 202 190 242 279 258 278 283 314 315 331 320 295 270 260 254 291 284 282 282 293 287 286 295 293 299 303 305 310 308 310 310 320 316 304 294 287 288 284 279 279 226 234 241 254 194 261 267 263 261 249 244 244 251 263 265 266 273 272 268 277 277 280 280 280 282 285
39 39 45 35 34 42 43 47 50 43 39 37 28 23 5 350 326 7 357 357 278 250 259 263 271 307 310 297 293 289 267 269 266 282 285 282 279 275 261 264 283 277 278 279 288 305 305 306 311 315 319 312 296 286 283 284 286 302 279 241 250 248 253 254 248 250 264 274 258 256 265 270 274 274 272 270 274 277 275 274 274 275 276 276 276
32 35 45 42 38 32 34 23 43 59 66 54 42 38 32 32 17 6 19 12 6 356 343 348 339 313 286 268 264 263 270 274 281 278 266 254 260 258 259 264 253 261 264 271 283 288 291 296 303 307 305 303 304 298 296 293 302 301 303 266 250 252 254 259 251 248 246 255 262 260 269 270 272 276 276 277 271 268 271 273 272 272 273 273 272
31 28 37 41 45 44 53 46 40 43 46 47 36 50 65 55 49 34 15 6 46 22 19 3 330 304 286 295 278 275 273 246 257 256 256 248 248 250 256 254 246 259 256 253 260 262 272 282 289 288 296 303 308 309 306 308 315 306 295 295 273 256 250 254 256 251 254 256 256 257 252 263 267 270 269 265 267 264 264 266 268 269 271 270 268
28 29 28 31 31 28 31 25 26 39 49 58 51 50 44 56 80 81 77 41 358 45 20 33 357 314 322 313 317 265 261 260 254 262 251 246 232 239 253 261 259 260 256 261 259 264 263 268 272 281 288 296 300 304 306 306 308 297 291 285 285 270 258 253 252 248 240 247 251 257 264 263 263 263 263 265 262 260 259 261 264 267 270 271 266
27 31 33 30 28 30 27 22 17 30 42 45 45 43 42 40 34 48 26 74 8 21 346 17 8 17 332 324 320 316 309 260 259 259 278 274 245 242 250 242 260 256 291 289 274 269 265 264 274 277 273 276 277 284 294 296 297 294 290 285 281 276 261 259 258 258 254 251 255 260 259 256 258 259 260 260 261 261 257 254 257 262 266 267 267
32 34 37 33 35 36 28 21 28 20 27 33 31 33 27 45 48 52 7 8 67 28 69 70 290 287 236 311 326 348 327 338 335 296 271 260 252 256 269 280 260 256 242 250 259 261 263 258 262 262 265 265 265 268 270 275 275 283 288 290 290 285 284 273 264 259 259 259 255 254 256 251 246 254 258 258 258 259 262 265 258 257 260 263 260
30 33 39 37 34 35 30 29 25 20 24 33 34 35 25 25 30 47 71 6 360 360 103 141 140 12 344 17 287 26 317 335 319 291 296 271 270 263 259 256 258 271 276 263 269 272 262 253 253 251 252 254 254 256 256 259 269 278 278 282 285 283 278 275 276 268 261 259 256 250 253 261 248 229 245 258 257 256 257 258 260 261 258 258 255
35 34 36 36 35 34 37 34 34 24 22 28 27 23 24 26 22 25 28 20 356 360 356 161 190 132 148 343 337 338 239 295 333 300 343 1 293 264 271 271 282 284 262 261 256 253 253 254 249 251 250 246 248 247 249 252 256 257 266 269 269 273 275 275 272 269 265 266 263 258 251 246 222 213 216 233 251 255 255 253 254 254 251 251 253
36 37 37 36 35 32 35 38 37 32 28 29 25 20 19 18 12 17 22 18 5 7 345 344 191 202 179 189 181 267 310 312 348 302 348 235 285 318 278 269 265 267 259 261 262 260 244 252 249 253 249 249 248 251 248 251 247 248 246 252 253 256 258 262 264 264 263 262 263 267 270 274 206 216 217 218 234 251 252 254 251 252 250 251 252
35 34 34 34 37 34 33 37 40 37 28 33 30 23 15 18 5 20 15 9 18 29 7 348 344 350 140 248 251 227 186 301 282 318 311 312 99 316 303 287 263 256 265 256 262 269 262 247 257 251 254 247 247 247 248 249 244 240 240 242 247 249 252 253 254 259 261 262 262 262 262 268 234 214 218 219 229 241 250 252 252 250 251 255 255
37 34 32 32 33 34 31 32 36 32 31 33 28 12 16 19 26 22 25 25 17 21 358 5 21 321 350 329 277 259 222 225 228 243 273 301 301 264 244 273 290 270 255 266 262 257 267 262 255 257 254 252 244 244 246 248 249 248 249 245 244 246 246 248 248 248 252 258 260 262 263 261 266 239 221 222 234 246 246 249 250 250 251 252 253
38 35 32 31 33 32 30 32 31 27 26 25 21 19 21 17 14 18 21 23 27 7 18 3 359 347 344 343 348 329 303 224 230 198 251 294 293 307 306 303 282 254 261 248 263 258 250 257 251 252 254 252 242 241 244 247 250 247 249 247 245 246 248 249 248 246 246 248 253 257 259 262 264 266 257 237 237 238 242 245 248 249 251 251 252
30 33 33 30 32 31 32 32 30 25 25 22 17 18 15 15 13 12 12 21 18 24 25 357 357 337 347 326 349 336 341 347 40 337 275 218 273 299 305 310 307 285 223 263 258 253 251 249 256 254 252 253 248 240 238 241 244 245 246 244 242 244 247 248 251 250 248 246 246 251 256 261 263 267 268 252 232 236 235 241 246 247 249 250 251
26 28 31 27 30 32 32 29 29 26 24 22 20 14 8 6 4 10 18 18 8 2 5 14 5 357 354 0 346 347 322 308 300 309 298 299 300 291 303 301 295 303 280 250 264 264 263 252 253 251 249 251 253 244 238 240 244 244 245 245 244 243 244 246 246 247 247 248 248 248 252 255 262 265 265 268 253 235 238 233 238 244 249 251 251
24 23 22 18 22 25 28 28 28 22 22 14 14 14 5 4 7 9 7 9 10 8 2 0 357 351 349 351 335 324 314 293 299 304 300 293 290 293 299 308 293 267 299 295 246 259 252 252 241 246 247 250 251 244 244 241 242 243 247 248 244 244 247 247 247 245 244 246 247 249 250 252 256 261 261 261 267 254 227 228 239 243 245 248 249
18 18 12 12 13 15 16 17 16 18 15 15 10 10 8 7 8 5 4 8 5 358 360 351 346 345 332 328 321 315 288 285 297 291 297 293 291 293 286 284 289 301 292 267 296 243 233 242 238 238 242 248 253 254 245 246 244 245 244 249 243 245 246 248 250 251 249 246 247 247 248 250 253 256 258 256 257 261 242 238 243 246 246 245 249
16 18 2 1 13 14 12 13 13 9 11 9 9 7 8 9 4 6 359 350 355 355 347 339 336 329 324 322 326 314 303 302 290 296 283 304 296 286 299 293 283 289 298 299 255 307 282 234 247 249 253 251 254 252 254 248 252 253 249 249 250 244 244 244 246 246 247 247 246 245 245 247 250 253 255 253 250 250 250 241 242 242 244 247 248
18 359 1 8 5 10 11 10 7 5 3 4 2 1 3 1 5 0 353 350 351 346 344 347 341 338 338 329 314 311 299 298 302 287 283 268 262 274 292 304 302 284 294 286 291 250 277 266 225 236 236 247 251 252 250 249 256 264 263 251 253 248 243 246 247 248 247 247 245 243 244 244 246 250 251 250 246 243 240 239 241 242 245 247 248
4 8 359 6 2 3 6 6 1 2 2 0 357 358 356 357 352 354 352 347 348 343 334 338 331 331 329 323 320 309 309 303 291 281 275 271 269 271 264 261 277 301 304 299 291 287 202 271 291 240 238 241 254 255 266 267 261 259 263 258 253 255 248 248 250 250 250 250 248 245 243 244 241 243 247 248 242 240 239 239 240 242 248 252 252
7 5 358 355 356 351 355 355 353 353 356 352 353 350 350 351 345 345 344 342 344 336 331 331 320 318 320 322 315 306 306 308 302 283 274 271 263 259 246 249 248 266 299 298 291 299 300 188 294 289 234 245 253 259 270 269 277 281 277 263 255 258 254 251 250 251 252 253 253 251 246 242 240 238 241 244 243 238 237 239 241 241 243 245 249
13 3 6 5 7 1 2 354 348 345 344 338 340 341 338 342 333 330 319 322 325 321 323 320 319 317 312 312 311 307 304 311 303 303 295 279 274 262 254 250 233 244 258 277 285 278 291 264 241 277 294 283 276 290 275 272 269 273 263 254 247 248 254 256 254 255 254 254 254 253 251 245 240 237 235 238 240 238 234 234 234 235 233 235 239
11 7 7 8 6 5 5 359 360 360 356 351 347 343 337 331 324 319 315 319 321 319 316 319 314 317 314 312 310 303 303 301 302 303 300 294 282 274 265 251 245 238 253 259 277 272 155 291 272 253 268 294 290 279 276 269 267 267 264 253 247 244 250 256 255 254 253 252 252 252 252 251 246 239 233 232 234 235 234 231 231 233 233 235 238
15 6 11 5 1 358 358 354 352 353 352 353 351 347 344 341 334 331 322 320 314 309 307 300 303 306 304 305 306 307 307 301 299 295 293 294 290 285 276 266 259 247 247 260 258 272 259 275 283 283 284 283 276 284 282 272 262 261 265 257 255 253 254 255 251 250 250 250 249 249 249 250 249 245 238 231 229 231 234 233 232 233 234 235 237
9 5 8 360 356 353 348 349 349 347 349 346 349 345 343 338 337 330 327 329 323 318 314 310 304 299 298 294 299 300 299 298 295 296 294 290 290 284 278 274 271 258 248 258 266 278 277 213 269 281 281 295 290 240 276 277 278 271 263 261 258 254 252 253 254 250 248 249 249 248 248 248 248 247 243 237 231 232 233 236 236 235 234 234 235
11 1 0 353 351 346 349 343 345 344 341 342 337 342 336 334 331 332 328 324 317 311 311 308 311 309 303 302 298 296 290 285 291 294 294 295 293 291 284 276 271 275 247 262 269 272 284 273 276 280 285 265 276 266 260 283 279 272 271 271 256 241 249 250 254 254 245 247 248 248 247 247 246 246 245 241 236 233 232 236 237 235 234 234 233
6 4 351 352 346 345 346 343 342 341 340 336 337 333 329 325 321 319 319 318 316 317 317 313 312 309 304 299 298 301 299 292 289 288 290 288 284 282 284 278 276 274 268 251 269 278 281 281 262 280 279 279 270 284 265 268 273 272 280 276 269 264 247 249 251 256 248 247 248 248 249 248 247 246 244 243 240 235 232 233 239 237 234 232 232
7 355 355 353 349 347 345 343 342 339 337 337 335 333 325 324 318 315 315 313 309 308 305 307 312 314 309 308 304 306 301 294 293 293 287 279 278 280 279 281 275 277 272 262 257 268 281 287 277 259 280 282 281 275 274 264 275 274 266 275 268 265 262 251 245 254 250 253 252 251 250 249 249 247 246 244 242 239 235 232 232 237 236 233 231
6 359 1 360 353 353 353 346 344 345 343 340 337 332 328 321 316 314 315 313 311 307 304 302 302 302 301 300 305 310 308 302 300 296 293 288 285 282 281 280 278 277 275 268 266 263 275 278 285 275 268 269 266 279 282 284 280 271 270 263 266 266 266 251 251 241 243 246 249 248 247 247 247 247 246 245 244 241 237 234 234 230 232 234 231
4 6 1 1 356 353 349 346 344 343 342 338 334 329 324 324 321 318 315 313 310 308 306 304 303 304 301 301 301 305 305 303 302 302 299 294 292 285 283 281 279 276 276 274 268 269 269 274 279 289 272 271 277 259 273 272 282 284 277 269 267 255 258 266 248 246 237 239 246 249 248 249 249 249 247 246 245 242 239 233 230 227 225 225 229
5 1 359 357 355 351 344 347 345 341 337 334 330 324 323 323 317 313 312 310 308 308 305 306 307 305 303 302 301 301 298 296 296 298 301 296 290 284 280 282 277 275 274 273 272 272 273 279 281 276 282 268 259 277 262 249 263 265 279 293 282 252 246 248 267 248 227 240 240 242 243 238 237 240 245 247 247 245 243 239 234 230 223 221 223
10 360 358 353 347 347 343 344 336 335 331 329 324 321 317 315 312 310 310 308 306 304 301 299 298 296 297 297 295 293 291 287 287 288 287 287 288 287 286 284 285 284 282 282 281 278 277 278 278 287 279 283 276 259 277 281 280 273 243 251 275 282 265 240 239 255 237 230 248 250 248 251 251 249 250 249 247 247 246 245 241 234 227 220 220
5 357 356 348 338 342 338 333 330 329 328 322 324 319 317 315 314 310 309 307 305 303 302 302 301 298 294 291 290 291 294 297 296 295 292 291 292 292 289 290 291 288 285 281 280 280 278 278 281 279 283 280 271 275 272 254 242 257 270 224 260 265 278 278 262 231 232 238 241 242 245 229 239 238 235 239 240 241 244 243 242 238 231 224 220
356 356 349 340 341 334 330 323 325 323 316 316 308 311 313 313 313 312 309 306 307 307 307 308 307 307 306 306 303 303 302 300 298 295 292 289 285 283 285 285 282 278 275 276 272 266 268 269 267 274 276 275 274 262 264 256 249 261 270 267 266 275 278 274 278 248 206 217 238 247 244 226 222 244 232 239 242 234 238 237 234 234 232 229 225
356 355 340 337 341 326 320 319 318 316 309 303 308 313 313 313 311 308 306 306 305 306 305 305 306 307 307 307 307 308 307 304 303 302 301 299 298 295 291 287 284 284 290 290 286 288 290 286 289 285 277 277 273 268 261 268 260 255 260 261 260 269 271 280 281 289 186 195 220 245 257 223 202 239 240 236 240 228 231 236 232 234 230 229 226
353 345 341 336 326 320 314 312 309 310 304 306 312 313 313 312 312 309 307 305 304 303 303 303 303 304 305 305 303 301 299 299 299 301 300 297 294 291 288 287 286 284 281 281 286 287 282 281 276 270 277 276 285 287 279 267 271 268 255 255 258 257 264 262 260 266 251 186 203 238 255 228 188 229 251 242 236 225 230 235 234 233 232 230 226
335 342 332 327 318 317 313 312 312 309 300 309 312 313 313 314 313 312 304 303 302 304 305 304 302 302 302 299 298 295 295 297 296 291 288 287 287 288 288 289 289 288 287 285 283 283 288 284 281 279 270 278 280 280 284 283 275 274 272 263 257 258 258 260 259 266 264 178 198 242 259 239 172 217 245 243 232 220 229 235 235 233 233 232 228
342 328 320 317 314 312 313 311 308 308 299 309 313 313 314 313 312 312 306 309 308 304 301 299 298 297 297 297 298 297 297 297 295 293 291 289 288 290 292 290 285 284 286 284 282 281 279 279 283 281 283 286 284 293 296 305 295 286 286 280 280 271 265 261 266 263 260 173 200 236 264 253 192 206 241 251 214 214 228 226 229 232 232 231 230
331 323 321 316 309 308 308 308 305 304 301 310 313 313 313 312 312 314 313 310 302 298 296 297 297 297 295 295 294 293 295 294 292 290 290 290 290 285 283 282 282 285 285 286 284 280 272 266 267 268 272 272 273 277 280 282 284 287 284 282 282 281 280 277 270 265 268 204 214 208 255 267 205 204 237 245 202 215 228 224 225 226 229 230 229
294 297 294 295 302 305 304 304 303 301 302 310 312 312 311 312 314 314 308 300 301 299 298 297 296 295 294 293 293 292 291 291 290 291 291 289 286 282 276 272 270 266 261 260 275 277 277 276 272 272 269 270 274 274 274 272 266 265 264 264 262 260 263 262 260 259 259 214 202 212 249 259 215 203 240 239 194 227 229 226 223 227 227 227 228
307 303 296 298 298 300 302 300 300 297 297 308 309 309 311 312 314 297 298 295 297 295 291 295 294 292 291 289 287 289 288 286 286 289 290 291 285 276 272 272 268 264 261 250 270 280 282 282 281 281 282 284 284 283 283 284 285 289 295 293 279 271 257 260 260 255 252 245 222 205 236 258 232 209 239 241 191 219 230 221 216 224 227 227 227
305 296 300 299 291 292 294 294 292 295 295 302 306 308 309 309 309 306 297 275 259 281 293 288 292 288 281 285 285 287 285 280 283 286 288 290 285 281 275 272 270 264 262 260 262 261 265 271 273 274 276 280 282 282 283 285 286 289 291 282 283 290 285 275 267 259 263 247 230 181 229 240 254 222 213 262 231 231 226 222 211 217 221 227 227
286 297 298 296 294 287 281 284 292 294 291 296 301 303 306 306 307 297 293 288 274 280 290 288 276 271 263 270 277 284 288 287 289 292 293 293 287 280 276 271 271 265 264 262 262 265 260 257 258 260 263 264 267 266 265 270 274 275 271 275 285 280 278 277 276 277 267 252 230 178 228 242 240 230 185 243 250 234 215 207 211 208 210 213 225